www.pogodaiklimat.ru

Погода и климат >> Архив погоды >> Гондурас >> Санта-Роза-де-Копан


ПОГОДА в Санта-Роза-де-Копане

  • Прогноз погоды в Санта-Роза-де-Копане
  • Монитор погоды в Санта-Роза-де-Копане

АРХИВ ПОГОДЫ в Санта-Роза-де-Копане

Время (UTC), дата Ветер
(напр.,м/с)
 
Видим.   Явления Облачность Т
(С)
Тd
(С)
f
(%)
Тe
(С)
Тes
(С)
Комфортность P
(гПа)
Po
(гПа)
Тmin
(С)
Tmax
(С)
R
(мм)
R24
(мм)
S
(см)
18 18.06 СВ 4 10 км мгла {туман} 8/8 840 м
[Cu med, cong Ci fib]
+29.2 +20.3 59 +36 +39 очень
душно
1011.3 895.6 +19.0 +29.2
21 18.06 С 5 10 км мгла {туман} 8/6 840 м
[Cu med, cong Ci fib]
+30.8 +19.8 52 +37 +39 очень
душно
1010.3 894.0
00 19.06 С 4 10 км мгла {туман} 8/6 840 м
[Cb cap Ci ing]
+27.4 +21.0 68 +34 +34 очень
душно
1009.4 894.2 +19.0 +31.6
12 19.06 штиль 0 2000 м дымка 6/1 600 м
[Cb cap Ci sp]
+20.2 +19.9 98 +24 +24 комфорт 1011.5 895.3 +20.2 +27.4
15 19.06 СВ 2 10 км мгла {туман} 6/4 750 м
[Cu hum Ci sp]
+26.0 +22.8 83 +35 +41 очень
душно
1011.8 896.1
18 19.06 СВ 2 10 км мгла {туман} 8/8 750 м
[Cu hum Ci fib]
+29.0 +22.9 70 +39 +43 очень
душно
1010.4 895.1 +20.2 +29.0
21 19.06 СВ 2 10 км мгла {туман} 6/5 900 м
[Cb cap Ci sp]
+31.4 +22.0 57 +40 +45 очень
душно
1008.2 893.2
00 20.06 С 1 10 км мгла {туман} 8/4 900 м
[Cu med, cong Ci sp]
+27.6 +23.1 77 +37 +37 очень
душно
1009.1 893.3 +20.2 +31.8
12 20.06 штиль 0 3000 м дымка 8/8 150 м
[St Ci fib]
+21.0 +20.7 98 +26 +26 душно 1010.4 894.4 +21.0 +31.8
15 20.06 СВ 2 10 км мгла {туман} 8/4 750 м
[Cu hum Cs]
+25.6 +21.5 78 +33 +39 очень
душно
1011.7 895.5
18 20.06 С 2 10 км мгла {туман} 9/6 750 м
[Cu hum Cs]
+27.8 +21.3 68 +35 +43 очень
душно
1011.3 895.4 +20.8 +28.2
21 20.06 С 4 10 км мгла {туман} 6/4 900 м
[Cu hum Ci fib]
+30.8 +20.4 54 +38 +42 очень
душно
1008.7 893.7
00 21.06 С 1 10 км мгла {туман} 9/5 900 м
[Cb cap Ci ing]
+25.6 +23.2 87 +34 +34 очень
душно
1010.6 894.2 +20.8 +31.6
12 21.06 штиль 0 10 км дымка 8/3 750 м
[Cu hum Ac trans Ci sp]
+18.8 +18.5 98 +20 +20 1012.6 895.8 +18.8 +31.6
15 21.06 СВ 3 20 км мгла {туман} 9/8 600 м
[Cu Sc Ci sp]
+24.0 +21.8 88 +31 +33 очень
душно
1013.8 897.0
18 21.06 С 3 20 км мгла {туман} 8/4 750 м
[Cu hum Ac As Cc]
+29.0 +21.2 63 +37 +44 очень
душно
1011.8 897.0 +18.8 +29.0
21 21.06 С 2 10 км мгла {туман} 8/6 900 м
[Cb cap Ci ing]
+28.8 +22.8 70 +38 +42 очень
душно
1010.4 894.4
00 22.06 ЮВ 4 1000 м гроза, ливневой дождь {туман} 10/10 750 м
[Cb cap]
+20.4 +20.1 98 +25 +25 комфорт 1013.9 896.0 +18.8 +30.6 18
12 22.06 штиль 0 2000 м 10/3 120 м
[Sc]
+28.9 -1 -1 1001.1 895.4 +18.6 +30.6 64
15 22.06 штиль 0 10 км мгла {туман} 9/8 450 м
[Sc Ac trans Ci sp]
+23.0 +21.4 91 +31 +33 очень
душно
1014.4 897.9
18 22.06 С 2 10 км мгла {туман} 9/6 750 м
[Cu med, cong Ci sp]
+26.4 +23.1 82 +35 +43 очень
душно
1013.3 896.7 +18.6 +26.4 34
21 22.06 Ю 5 2000 м гроза, ливневой дождь {туман} 10/9 750 м
[Cb cap As op]
+23.0 +21.6 92 +31 +31 очень
душно
1012.5 895.2 0.3
00 23.06 штиль 0 10 км гроза без осадков {туман} 10/5 750 м
[Cb cap As op]
+20.4 +20.1 98 +24 +24 комфорт 1013.5 895.8 +18.6 +28.8 15
12 23.06 штиль 0 10 км дымка 8/1 750 м
[Cu hum Ci sp]
+17.4 +17.1 98 +17 +18 1014.8 896.5 +17.4 +28.8 0.8
15 23.06 штиль 0 10 км мгла {туман} 8/3 600 м
[Cu hum Ci sp]
+23.4 +21.6 90 +32 +42 очень
душно
1014.4 896.9
18 23.06 СВ 2 10 км мгла {туман} 4/4 750 м
[Cu hum Ci fib]
+28.0 +20.6 64 +35 +48 очень
душно
1012.8 896.2 +17.4 +28.0 0.8
21 23.06 С 1 10 км мгла {туман} 5/5 750 м
[Cu med, cong Ci fib]
+29.8 +19.5 54 +36 +42 очень
душно
1010.4 894.4
00 24.06 штиль 0 10 км мгла {туман} 4/4 750 м
[Cu hum]
+27.4 +17.0 53 +31 +31 душно 1011.2 894.4 +17.4 +30.8 0.8
12 24.06 штиль 0 8000 м дымка 5/1 750 м
[Sc Ci fib]
+16.4 +16.1 98 +16 +17 1012.4 895.6 +16.4 +30.8
15 24.06 СВ 3 10 км мгла {туман} 5/0 750 м
[Ac As Cs]
+23.0 +18.6 76 +29 +37 очень
душно
1013.0 896.8
18 24.06 С 3 10 км мгла {туман} 3/3 900 м
[Cu Sc Ac trans]
+27.8 +15.8 48 +31 +43 душно 1012.2 896.0 +16.4 +27.8
21 24.06 С 4 10 км мгла {туман} 4/4 600 м
[Cu Sc Ac trans]
+29.4 +15.5 43 +32 +37 душно 1009.5 894.0
00 25.06 С 4 10 км мгла {туман} 8/4 900 м
[Cu hum Ac trans Ci fib]
+27.4 +16.6 52 +31 +31 душно 1012.0 894.2 +16.4 +29.6
12 25.06 штиль 0 8000 м дымка 1/1 750 м
[Cu hum]
+18.0 +17.7 98 +18 +18 1011.5 895.0 +18.0 +30.8

 

Местоположение метеостанции Санта-Роза-де-Копан (Гондурас): широта 14.78 долгота -88.78 высота над уровнем моря 1079 м.

В архиве по умолчанию представлена погода в Санта-Роза-де-Копане за последнюю неделю. Архивные данные за месяц целиком и за предыдущие месяцы, начиная с января 2011 года, Вы можете получить, выбрав интересующий диапазон дат из раскрывающегося списка и нажав кнопку "Ввод!".


*Определитесь, кто Вы:
робот инопланетянин человек

Внимание! Время в таблицах - всемирное. Для получения местного времени необходимо прибавить поправку, которая равна -6 ч.

Смотрите также архив погоды в соседних городах и на ближайших метеорологических станциях:

Погода в Нуэва Окотепеке (Гондурас) (58 км)
Погода в Ла-Эсперансе (Гондурас) (84 км)
Погода в Пуэрто-Барриосе (Гватемала) (106 км)
Погода в Ла-Лиме (Гондурас) (118 км)
Погода в Теле (Гондурас) (174 км)
Погода в Йоро (Гондурас) (185 км)
Погода в Гватемале (Гватемала) (187 км)
Погода в Тегусигальпе (Гондурас) (188 км)
Погода в Амапале (Гондурас) (208 км)
Погода в Ла-Сейбе (Гондурас) (232 км)

Пояснения к столбцам:

Ветер - указаны скорость ветра в м/с - средняя за 10 мин, порывы в срок и между сроками (в фигурных скобках) и направление, откуда дует ветер: С - северный, СВ - северо-восточный, В - восточный, ЮВ - юго-восточный, Ю - южный, ЮЗ - юго-западный, З - западный, СЗ - северо-западный.
Видимость - горизонтальная дальность видимости в метрах или километрах. При видимости от 1 до 10 км при отсутствии осадков обычно наблюдается дымка, при ухудшении видимости до 1 км и менее - туман. В сухую погоду видимость может ухудшаться дымом, пылью или мглою.
Явления - указаны атмосферные явления, наблюдавшиеся в срок или в последний час перед сроком; фигурными скобками обозначены явления, наблюдавшиеся между сроками (за 1-3 часа до срока); квадратными скобками обозначены град или гололедные отложения с указанием их диаметра в мм.
Облачность - указаны через наклонную черту общая и нижняя облачность в баллах и высота нижней границы облаков в метрах; квадратными скобками обозначены формы облаков: Ci - перистые, Cs - перисто-слоистые, Cc - перисто-кучевые, Ac - высококучевые, As - высокослоистые, Sc - слоисто-кучевые, Ns - слоисто-дождевые, Cu - кучевые, Cb - кучево-дождевые. Подробнее классификацию облаков см. в Атласе облаков (PDF).
T - Температура воздуха - температура, измеренная на высоте 2 м над землей.
Td - Температура точки росы - температура, при понижении до которой содержащийся в воздухе водяной пар достигнет насыщения.
f - Относительная влажность воздуха - влажноcть воздуха, измеренная на высоте 2 м над землей.
Te - Эффективная температура - температура, которую ощущает одетый по сезону человек в тени. Характеристика душности погоды. При расчете учитывается влияние влажности воздуха и скорости ветра на теплоощущения человека.
Tes - Эффективная температура на солнце - температура, которую ощущает человек, с поправкой на солнечный нагрев. Характеристика знойности погоды. Зависит от высоты солнца над горизонтом, облачности и скорости ветра. Ночью, в пасмурную погоду, а также при ветре 12 м/с и более поправка равна нулю.
P - Атмосферное давление - приведенное к уровню моря атмосферное давление.
Po - Атмосферное давление - измеренное на уровне метеостанции атмосферное давление.
Tmin - Минимальная температура - минимум температуры воздуха на высоте 2 м над землей.
Tmax - Максимальная температура - максимум температуры воздуха на высоте 2 м над землей.
R - Количество осадков - Количество выпавших осадков за период времени, мм. При наведении курсора мыши на число - период времени, за который выпало указанное количество осадков.
R24 - Количество осадков - Количество выпавших осадков за 24 часа, мм.
S - Снежный покров - Высота снежного покрова, см. При наведении курсора мыши на число - состояние снежного покрова и степень покрытия местности в баллах.